Regional Weather Roundup
Issued by NWS

Home | Current Version | Previous Version | Text Only | Print | Product List | Glossary Off
Versions: 1 2 3 4 5 6 7 8 9 10 11 12 13 14 15 16 17 18 19 20 21 22 23 24 25 26 27 28 29 30 31 32 33 34 35 36 37 38 39 40 41 42 43 44 45 46 47 48 49 50

000
ASUS43 KMKX 300600
RWRWI

WISCONSIN REGIONAL WEATHER ROUNDUP
NATIONAL WEATHER SERVICE MILWAUKEE/SULLIVAN WI
100 AM CDT TUE SEP 30 2014

NOTE: "FAIR" INDICATES FEW OR NO CLOUDS BELOW 12,000 FEET WITH NO
SIGNIFICANT WEATHER AND/OR OBSTRUCTIONS TO VISIBILITY.

WIZ001-002-006>008-014>016-023>028-300700-
NORTHWEST WISCONSIN

CITY           SKY/WX    TMP DP  RH WIND       PRES   REMARKS
SUPERIOR ARPT  CLOUDY    44  39  82 E7        30.18S
ASHLAND        CLOUDY    44  40  85 E7        30.19F
6HR MIN TEMP:  43; 6HR MAX TEMP:  44;

HAYWARD        CLOUDY    41  38  89 NE12      30.15S
6HR MIN TEMP:  41; 6HR MAX TEMP:  43;

SIREN          CLOUDY    42  40  92 NE7       30.14F
CUMBERLAND     CLOUDY    41  36  81 NE8       30.13S
RICE LAKE      CLOUDY    41  37  84 NE9       30.16R
6HR MIN TEMP:  41; 6HR MAX TEMP:  48;

CHETEK         CLOUDY    42  38  86 NE9       30.14S
LADYSMITH      CLOUDY    41  38  87 NE10      30.16S
EAU CLAIRE     NOT AVBL
MENOMONIE      CLOUDY    44  39  82 NE7       30.13R
NEW RICHMOND   PTCLDY    41  39  93 E8        30.13R
OSCEOLA        CLOUDY    43  42  95 NE6       30.16S
$$

WIZ003>005-009-010-017-018-300700-
NORTH CENTRAL WISCONSIN

CITY           SKY/WX    TMP DP  RH WIND       PRES   REMARKS
MANITOWISH WTR CLOUDY    37  37 100 NE8       30.14F WCI  30
ARBOR VITAE    CLOUDY    39  37  93 NE9       30.14F WCI  33
WOODRUFF       CLOUDY    39  37  93 NE9       30.14F WCI  33
RHINELANDER    CLOUDY    37  35  92 VRB7      30.14F WCI  32
6HR MIN TEMP:  36; 6HR MAX TEMP:  40;

EAGLE RIVER    DRIZZLE   37  37  99 N6        30.14S WCI  33
LAND O LAKES   CLOUDY    38  37  96 NE8       30.15F WCI  32
PHILLIPS       CLOUDY    38  36  91 NE13      30.14R WCI  30
6HR MIN TEMP:  38; 6HR MAX TEMP:  41;

TOMAHAWK       CLOUDY    38  36  91 NE6       30.14F WCI  34
MEDFORD        CLOUDY    39  36  90 NE10      30.11F WCI  32
MERRILL        CLOUDY    39  36  88 NE10      30.13S WCI  32
$$

WIZ029-030-035-036-043>047-300700-
CENTRAL WISCONSIN

CITY           SKY/WX    TMP DP  RH WIND       PRES   REMARKS
WAUSAU         CLOUDY    41  36  82 NE7       30.12R
6HR MIN TEMP:  41; 6HR MAX TEMP:  49;

MOSINEE        CLOUDY    41  37  87 NE9       30.12S
MARSHFIELD     CLOUDY    42  37  82 NE12      30.10S
6HR MIN TEMP:  42; 6HR MAX TEMP:  52;

STEVENS POINT  CLOUDY    41  37  85 N10       30.11S
WAUPACA        CLOUDY    46  40  81 N6        30.12S
WAUTOMA        NOT AVBL
WISC RAPIDS    CLOUDY    45  39  79 E8        30.11F
6HR MIN TEMP:  45; 6HR MAX TEMP:  54;

CAMP DOUGLAS   NOT AVBL
$$

WIZ011>013-019>022-031-037>040-048>050-300700-
NORTHEAST WISCONSIN

CITY           SKY/WX    TMP DP  RH WIND       PRES   REMARKS
ANTIGO         CLOUDY    37  36  93 N12       30.12F WCI  30
SHAWANO        CLOUDY    44  39  81 N10       30.12F
6HR MIN TEMP:  44; 6HR MAX TEMP:  51;

OCONTO         CLOUDY    43  39  87 N6        30.11S
STURGEON BAY   NOT AVBL
GREEN BAY      CLOUDY    43  38  82 N17G23    30.11S
6HR MIN TEMP:  43; 6HR MAX TEMP:  50;

MANITOWOC      NOT AVBL
APPLETON       CLOUDY    43  36  75 NE9       30.11S
CLINTONVILLE   CLOUDY    43  36  75 N6        30.12R
OSHKOSH        CLOUDY    46  39  76 N18       30.10R
6HR MIN TEMP:  46; 6HR MAX TEMP:  52;

$$

WIZ032>034-041-042-053>061-300700-
SOUTHWEST WISCONSIN

CITY           SKY/WX    TMP DP  RH WIND       PRES   REMARKS
LA CROSSE      CLEAR     47  42  83 NE6       30.09R
6HR MIN TEMP:  47; 6HR MAX TEMP:  59;

SPARTA         CLEAR     41  41  98 NE3       30.10S
VIROQUA        PTCLDY    46  46 100 NE7       30.07R
BOSCOBEL       CLOUDY    54  47  77 NE6       30.06S
6HR MIN TEMP:  53; 6HR MAX TEMP:  58;

PRAIRIE DU CHI CLOUDY    53  46  78 N3        30.05S
PLATTEVILLE    CLOUDY    52  50  91 NE10G16   30.05S
$$

WIZ056-057-062-063-064-067-068-300700-
SOUTH CENTRAL WISCONSIN

CITY           SKY/WX    TMP DP  RH WIND       PRES   REMARKS
REEDSBURG      CLOUDY    49  45  85 NE6       30.07S
BARABOO/DELLS  CLOUDY    48  44  85 NE12      30.07S
LONE ROCK      NOT AVBL
MINERAL POINT  CLOUDY    52  48  87 NE7       30.05S
MADISON        CLOUDY    49  44  83 NE15      30.07R
6HR MIN TEMP:  49; 6HR MAX TEMP:  54;

MIDDLETON      CLOUDY    50  46  86 NE9       30.07S
WATERTOWN      CLOUDY    48  45  89 N7        30.06S
MONROE         CLOUDY    50  48  93 NE10      30.04S
JANESVILLE     CLOUDY    52  45  76 NE9G17    30.04S
$$

WIZ051-052-058>065-066-070>072-300700-
SOUTHEAST WISCONSIN

CITY           SKY/WX    TMP DP  RH WIND       PRES   REMARKS
MILWAUKEE      CLOUDY    49  42  77 N14G21    30.06R
6HR MIN TEMP:  49; 6HR MAX TEMP:  52; 6HR PCP:  0.05;

WAUKESHA       CLOUDY    45  43  93 NE7       30.06S
MILWAUKEE/TIMM CLOUDY    46  41  81 N10       30.07R
RACINE         CLOUDY    50  44  80 N14G25    30.06S
6HR MIN TEMP:  50; 6HR MAX TEMP:  54; 6HR PCP:  0.01;

BURLINGTON     CLOUDY    47  44  90 NE7       30.05R
KENOSHA        CLOUDY    50  45  83 N9        30.05R
6HR MIN TEMP:  50; 6HR MAX TEMP:  55; 6HR PCP:  0.01;

FOND DU LAC    CLOUDY    46  40  79 NE15      30.09S
6HR MIN TEMP:  46; 6HR MAX TEMP:  52; 6HR PCP:  0.02;

SHEBOYGAN      NOT AVBL
WEST BEND      CLOUDY    45  39  81 N8        30.06S
JUNEAU         CLOUDY    47  43  87 N9G16     30.08R
$$

LSZ147-162-300700-
LAKE SUPERIOR

STATION/POSITION TIME  TEMP    WIND        PRES    WAVE
                       AIR SEA DIR/SP/G            HT/PER
                 (UTC) (F)     (DEG/KT/KT) (MB)    (FT/S)
W MID LAKE BUOY  0450   44 49   40/ 12/ 17 1022.8F   4/ 7
DEVILS ISLAND    0500   44      50/ 13/ 14 1023.6R
SAXON HARBOR     0540   44      90/  5/  9 1022.4S
$$

LMZ867-665-643>646-300700-
LAKE MICHIGAN

STATION/POSITION TIME  TEMP    WIND        PRES    WAVE
                       AIR SEA DIR/SP/G            HT/PER
                 (UTC) (F)     (DEG/KT/KT) (MB)    (FT/S)
CHAMBERS ISLAND  0500   46     330/ 23/ 27 1019.0S
S GREEN BAY BUOY 0530   47                 1020.3S
N MID LAKE BUOY  0450   47 58  350/ 19/ 25 1017.3F   4/ 5
NORTHPORT PIER   0500   47     360/ 21/ 26 1018.6S
KEWAUNEE LAKESHO 0500   45     360/  8/ 13 1017.7S
SHEBOYGAN LAKESH 0500   46 55   10/ 17/ 21 1018.8R
PORT WASHINGTON  0540           20/  8/ 13 1018.6R
ATWATER BUOY     0500   51      30/ 21/ 25 1018.1F
MILWAUKEE LAKESH 0500           10/ 15/ 20   N/A
S MID LAKE BUOY  0450   53 63  350/ 21/ 27 1016.1R   8/ 8
KENOSHA   LAKESH 0500           10/ 22/ 25 1016.6S
$$

TC  - TEMPERATURE IN CELSIUS
VSB - VISIBILITY IN STATUTE MILES
WCI - WIND CHILL INDEX
HX  - HEAT INDEX



USA.gov is the U.S. government's official web portal to all federal, state and local government web resources and services.